| time (UTC) | temp F | wind direction | speed knots | gust knots | rain 1hr in | rain 24hr in | rain mn in | humidity % | barometer mb |
| 20260507020407 | 77 | 68 | 1.7 | 5.2 | 0.00 | 0.00 | 0.00 | 60 | 1011.2 |
| 20260507015205 | 76 | 38 | 5.2 | 7.8 | 0.00 | 0.00 | 0.00 | 61 | 1011.5 |
| 20260507014004 | 77 | 12 | 0.9 | 5.2 | 0.00 | 0.00 | 0.00 | 60 | 1011.7 |
| 20260507012806 | 75 | 38 | 1.7 | 7.8 | 0.00 | 0.00 | 0.00 | 60 | 1011.9 |
| 20260507011605 | 74 | 12 | 1.7 | 5.2 | 0.00 | 0.00 | 0.00 | 60 | 1012.0 |
| 20260507010407 | 74 | 92 | 1.7 | 7.0 | 0.00 | 0.00 | 0.00 | 59 | 1012.2 |
| 20260507005205 | 74 | 61 | 0.9 | 2.6 | 0.00 | 0.00 | 0.00 | 61 | 1012.2 |
| 20260507004004 | 74 | 35 | 4.3 | 7.0 | 0.00 | 0.00 | 0.00 | 62 | 1012.2 |
| 20260507002805 | 73 | 34 | 4.3 | 7.0 | 0.00 | 0.00 | 0.00 | 63 | 1012.3 |
| 20260507001608 | 73 | 54 | 0.9 | 5.2 | 0.00 | 0.00 | 0.00 | 66 | 1012.6 |
| 20260507000406 | 72 | 57 | 0.9 | 2.6 | 0.00 | 0.00 | 0.00 | 63 | 1012.8 |
| 20260506235205 | 71 | 44 | 0.0 | 1.7 | 0.00 | 0.00 | 0.00 | 69 | 1013.0 |
| 20260506234007 | 70 | 359 | 0.0 | 0.9 | 0.00 | 0.00 | 0.00 | 71 | 1013.0 |
| 20260506232807 | 69 | 48 | 0.9 | 2.6 | 0.00 | 0.00 | 0.00 | 72 | 1013.2 |
| 20260506231605 | 66 | 102 | 1.7 | 2.6 | 0.00 | 0.00 | 0.00 | 76 | 1013.5 |
| 20260506225206 | 64 | 146 | 0.0 | 1.7 | 0.00 | 0.00 | 0.00 | 79 | 1013.7 |
| 20260506224006 | 66 | 61 | 0.0 | 0.0 | 0.00 | 0.00 | 0.00 | 77 | 1014.0 |
| 20260506222807 | 64 | 35 | 0.9 | 0.9 | 0.00 | 0.00 | 0.00 | 79 | 1014.0 |
| 20260506221605 | 64 | 138 | 0.0 | 0.9 | 0.00 | 0.00 | 0.00 | 79 | 1014.0 |
| 20260506220406 | 61 | 84 | 0.0 | 0.0 | 0.00 | 0.00 | 0.00 | 85 | 1014.4 |
| 20260506215207 | 60 | 89 | 0.0 | 0.9 | 0.00 | 0.00 | 0.00 | 86 | 1014.5 |
| 20260506214007 | 60 | 90 | 1.7 | 1.7 | 0.00 | 0.00 | 0.00 | 87 | 1014.7 |
| 20260506212806 | 58 | 92 | 0.0 | 0.9 | 0.00 | 0.00 | 0.00 | 92 | 1014.6 |
| 20260506211607 | 57 | 149 | 0.0 | 0.0 | 0.00 | 0.00 | 0.00 | 93 | 1014.5 |
| 20260506210407 | 56 | 244 | 0.9 | 1.7 | 0.00 | 0.00 | 0.00 | 96 | 1014.4 |
| 20260506205206 | 54 | 220 | 0.9 | 0.9 | 0.00 | 0.00 | 0.00 | 99 | 1014.3 |
| 20260506204005 | 53 | 264 | 0.9 | 0.9 | 0.00 | 0.00 | 0.00 | 99 | 1014.6 |
| 20260506202805 | 52 | 269 | 1.7 | 1.7 | 0.00 | 0.00 | 0.00 | 99 | 1014.5 |
| 20260506201606 | 51 | 231 | 0.0 | 0.0 | 0.00 | 0.00 | 0.00 | 99 | 1014.5 |
| 20260506200407 | 52 | 224 | 0.9 | 0.9 | 0.00 | 0.00 | 0.00 | 99 | 1014.4 |
| 20260506195206 | 52 | 75 | 0.0 | 0.0 | 0.00 | 0.00 | 0.00 | 99 | 1014.5 |
| 20260506194006 | 52 | 198 | 0.0 | 0.0 | 0.00 | 0.00 | 0.00 | 99 | 1014.5 |
| 20260506192806 | 52 | 264 | 1.7 | 1.7 | 0.00 | 0.00 | 0.00 | 99 | 1014.8 |
| 20260506191604 | 53 | 222 | 1.7 | 2.6 | 0.00 | 0.00 | 0.00 | 99 | 1014.7 |
| 20260506190404 | 53 | 311 | 0.0 | 0.0 | 0.00 | 0.00 | 0.00 | 99 | 1014.8 |
| 20260506185204 | 53 | 335 | 0.9 | 1.7 | 0.00 | 0.00 | 0.00 | 99 | 1015.0 |
| 20260506184004 | 54 | 218 | 0.9 | 1.7 | 0.00 | 0.00 | 0.00 | 99 | 1015.5 |
| 20260506182804 | 53 | 286 | 0.9 | 1.7 | 0.00 | 0.00 | 0.00 | 99 | 1015.2 |
| 20260506181604 | 53 | 122 | 0.0 | 0.9 | 0.00 | 0.00 | 0.00 | 99 | 1015.4 |
| 20260506180406 | 53 | 284 | 2.6 | 5.2 | 0.00 | 0.00 | 0.00 | 99 | 1015.6 |
| 20260506175204 | 53 | 164 | 1.7 | 1.7 | 0.00 | 0.00 | 0.00 | 99 | 1015.5 |
| 20260506174008 | 54 | 197 | 0.0 | 0.9 | 0.00 | 0.00 | 0.00 | 99 | 1015.3 |
| 20260506172805 | 53 | 341 | 0.0 | 0.9 | 0.00 | 0.00 | 0.00 | 99 | 1015.5 |
| 20260506171606 | 54 | 347 | 0.0 | 0.0 | 0.00 | 0.00 | 0.00 | 99 | 1015.2 |
| 20260506170404 | 54 | 341 | 0.9 | 1.7 | 0.00 | 0.00 | 0.00 | 97 | 1015.6 |
| 20260506165205 | 55 | 288 | 0.9 | 0.9 | 0.00 | 0.00 | 0.00 | 96 | 1015.9 |
| 20260506164003 | 55 | 313 | 0.0 | 0.0 | 0.00 | 0.00 | 0.00 | 97 | 1015.9 |
| 20260506162805 | 55 | 334 | 0.0 | 0.0 | 0.00 | 0.00 | 0.00 | 96 | 1016.1 |
| 20260506161605 | 56 | 314 | 1.7 | 1.7 | 0.00 | 0.00 | 0.00 | 95 | 1015.9 |
| 20260506160403 | 56 | 201 | 0.9 | 1.7 | 0.00 | 0.00 | 0.00 | 95 | 1016.1 |
| 20260506155203 | 55 | 249 | 1.7 | 1.7 | 0.00 | 0.00 | 0.00 | 96 | 1016.3 |
| 20260506154005 | 55 | 289 | 0.0 | 0.9 | 0.00 | 0.00 | 0.00 | 96 | 1016.3 |
| 20260506152804 | 56 | 299 | 1.7 | 2.6 | 0.00 | 0.00 | 0.00 | 95 | 1016.5 |
| 20260506151604 | 56 | 182 | 0.0 | 0.9 | 0.00 | 0.00 | 0.00 | 95 | 1016.6 |
| 20260506150405 | 56 | 304 | 0.0 | 0.0 | 0.00 | 0.00 | 0.00 | 95 | 1016.6 |
| 20260506145205 | 56 | 244 | 0.0 | 0.0 | 0.00 | 0.00 | 0.00 | 94 | 1016.6 |
| 20260506144005 | 56 | 270 | 0.9 | 1.7 | 0.00 | 0.00 | 0.00 | 94 | 1016.8 |
| 20260506142805 | 57 | 265 | 0.9 | 0.9 | 0.00 | 0.00 | 0.00 | 94 | 1016.9 |
| 20260506141604 | 57 | 249 | 1.7 | 2.6 | 0.00 | 0.00 | 0.00 | 92 | 1016.9 |
| 20260506140404 | 58 | 276 | 0.0 | 0.0 | 0.00 | 0.00 | 0.00 | 91 | 1016.9 |
| 20260506135203 | 57 | 218 | 0.0 | 0.9 | 0.00 | 0.00 | 0.00 | 91 | 1017.0 |
| 20260506134005 | 57 | 162 | 0.9 | 1.7 | 0.00 | 0.00 | 0.00 | 92 | 1017.2 |
| 20260506132803 | 57 | 286 | 0.9 | 1.7 | 0.00 | 0.00 | 0.00 | 91 | 1017.1 |
| 20260506131605 | 57 | 297 | 1.7 | 1.7 | 0.00 | 0.00 | 0.00 | 91 | 1017.0 |
| 20260506130405 | 59 | 182 | 0.0 | 0.9 | 0.00 | 0.00 | 0.00 | 88 | 1017.2 |
| 20260506125204 | 58 | 209 | 2.6 | 2.6 | 0.00 | 0.00 | 0.00 | 89 | 1017.3 |
| 20260506124004 | 58 | 189 | 0.9 | 0.9 | 0.00 | 0.00 | 0.00 | 90 | 1017.3 |
| 20260506122807 | 58 | 189 | 0.9 | 0.9 | 0.00 | 0.00 | 0.00 | 90 | 1017.3 |
| 20260506121604 | 58 | 189 | 0.9 | 0.9 | 0.00 | 0.00 | 0.00 | 90 | 1017.2 |
| 20260506120405 | 58 | 227 | 0.0 | 0.0 | 0.00 | 0.00 | 0.00 | 90 | 1017.3 |
| 20260506115204 | 58 | 242 | 0.9 | 1.7 | 0.00 | 0.00 | 0.00 | 90 | 1017.2 |
| 20260506114007 | 58 | 235 | 1.7 | 1.7 | 0.00 | 0.00 | 0.00 | 89 | 1017.5 |
| 20260506112806 | 58 | 230 | 1.7 | 2.6 | 0.00 | 0.00 | 0.00 | 90 | 1017.4 |
| 20260506111606 | 59 | 283 | 1.7 | 1.7 | 0.00 | 0.00 | 0.00 | 89 | 1017.0 |
| 20260506110405 | 59 | 283 | 1.7 | 1.7 | 0.00 | 0.00 | 0.00 | 89 | 1017.0 |
| 20260506105205 | 59 | 283 | 1.7 | 1.7 | 0.00 | 0.00 | 0.00 | 89 | 1017.1 |
| 20260506104005 | 59 | 283 | 1.7 | 1.7 | 0.00 | 0.00 | 0.00 | 89 | 1017.1 |
| 20260506102806 | 60 | 252 | 0.9 | 1.7 | 0.00 | 0.00 | 0.00 | 86 | 1017.3 |
| 20260506101606 | 60 | 203 | 1.7 | 1.7 | 0.00 | 0.00 | 0.00 | 86 | 1017.4 |
| 20260506100405 | 61 | 217 | 1.7 | 1.7 | 0.00 | 0.00 | 0.00 | 87 | 1017.0 |
| 20260506095205 | 61 | 189 | 1.7 | 1.7 | 0.00 | 0.00 | 0.00 | 86 | 1016.8 |
| 20260506094005 | 62 | 234 | 1.7 | 1.7 | 0.00 | 0.00 | 0.00 | 84 | 1016.5 |
| 20260506092806 | 62 | 136 | 0.0 | 0.0 | 0.00 | 0.00 | 0.00 | 82 | 1016.6 |
| 20260506091604 | 62 | 177 | 0.9 | 1.7 | 0.00 | 0.00 | 0.00 | 83 | 1017.0 |
| 20260506090404 | 63 | 174 | 0.9 | 0.9 | 0.00 | 0.00 | 0.00 | 80 | 1016.5 |
| 20260506085205 | 64 | 1 | 0.0 | 0.0 | 0.00 | 0.00 | 0.00 | 79 | 1016.8 |
| 20260506084005 | 65 | 132 | 0.0 | 0.0 | 0.00 | 0.00 | 0.00 | 76 | 1016.8 |
| 20260506082804 | 65 | 134 | 0.9 | 0.9 | 0.00 | 0.00 | 0.00 | 77 | 1016.4 |
| 20260506080405 | 65 | 276 | 0.0 | 0.9 | 0.00 | 0.00 | 0.00 | 74 | 1017.1 |
| 20260506071604 | 66 | 3 | 0.0 | 0.0 | 0.00 | 0.00 | 0.00 | 70 | 1016.8 |
| 20260506070406 | 66 | 336 | 0.0 | 0.0 | 0.00 | 0.00 | 0.00 | 69 | 1016.9 |
| 20260506061605 | 67 | 11 | 0.9 | 0.9 | 0.00 | 0.00 | 0.00 | 67 | 1017.4 |
| 20260506060405 | 66 | 334 | 0.9 | 1.7 | 0.00 | 0.00 | 0.00 | 68 | 1017.2 |
| 20260506050544 | 66 | 138 | 0.9 | 2.6 | 0.00 | 0.00 | 0.00 | 67 | 1017.7 |
| 20260506044145 | 66 | 266 | 0.9 | 1.7 | 0.00 | 0.00 | 0.00 | 66 | 1018.0 |
| 20260506042946 | 66 | 126 | 0.0 | 0.0 | 0.00 | 0.00 | 0.00 | 65 | 1018.0 |
| 20260506041747 | 66 | 101 | 0.9 | 2.6 | 0.00 | 0.00 | 0.00 | 65 | 1018.5 |
| 20260506040545 | 66 | 40 | 0.0 | 1.7 | 0.00 | 0.00 | 0.00 | 64 | 1018.3 |
| 20260506035346 | 66 | 142 | 0.0 | 0.9 | 0.00 | 0.00 | 0.00 | 64 | 1018.6 |
| 20260506034145 | 68 | 80 | 0.9 | 1.7 | 0.00 | 0.00 | 0.00 | 62 | 1018.8 |
| 20260506032944 | 66 | 102 | 0.9 | 2.6 | 0.00 | 0.00 | 0.00 | 64 | 1018.8 |
| 20260506031745 | 65 | 32 | 1.7 | 2.6 | 0.00 | 0.00 | 0.00 | 64 | 1018.7 |
| 20260506030545 | 65 | 43 | 2.6 | 4.3 | 0.00 | 0.00 | 0.00 | 64 | 1018.8 |
| 20260506025344 | 65 | 31 | 1.7 | 4.3 | 0.00 | 0.00 | 0.00 | 63 | 1019.1 |
| 20260506024145 | 64 | 42 | 1.7 | 4.3 | 0.00 | 0.00 | 0.00 | 65 | 1019.1 |
| 20260506022944 | 64 | 25 | 2.6 | 5.2 | 0.00 | 0.00 | 0.00 | 65 | 1019.5 |
| 20260506021745 | 64 | 85 | 5.2 | 5.2 | 0.00 | 0.00 | 0.00 | 65 | 1019.6 |